W0KHZ Weather Reports


time (UTC)temp
C
wind
direction
speed
KPH
gust
KPH
rain 1hr
cm
rain 24hr
cm
rain mn
cm
humidity
%
barometer
mb
20260902000545 23 58 0.0 3.2 0.10 0.13 0.13 85 1040.9
20260902000022 23 0.0 0.0 0.10 0.13 0.13 85 1040.8
20260901235539 23 0.0 0.0 0.10 0.13 0.13 84 1041.1
20260901235016 23 0.0 0.0 0.10 0.10 0.10 85 1041.3
20260901234531 23 0.0 0.0 0.10 0.10 0.10 84 1040.9
20260901234028 23 0.0 0.0 0.10 0.10 0.10 84 1041.0
20260901233545 24 323 0.0 1.6 0.10 0.10 0.10 83 1040.6
20260901233023 24 0.0 0.0 0.10 0.10 0.10 81 1040.5
20260901232520 25 0.0 0.0 0.10 0.10 0.10 80 1040.5
20260901232017 25 0.0 0.0 0.10 0.10 0.10 79 1040.8
20260901231535 25 285 0.0 1.6 0.08 0.10 0.10 78 1041.1
20260901231030 26 0.0 0.0 0.00 0.00 0.00 77 1041.8
20260901230527 26 0.0 0.0 0.00 0.00 0.00 76 1041.9
20260901230024 26 0.0 0.0 0.00 0.00 0.00 75 1042.0
20260901225521 26 0.0 0.0 0.00 0.00 0.00 75 1042.1
20260901225019 26 0.0 0.0 0.00 0.00 0.00 76 1042.3
20260901224516 26 0.0 0.0 0.00 0.00 0.00 76 1042.3
20260901224133 26 0.0 0.0 0.00 0.00 0.00 75 1042.0
20260901223529 27 0.0 0.0 0.00 0.00 0.00 74 1041.8
20260901223027 27 0.0 0.0 0.00 0.00 0.00 74 1041.3
20260901222523 27 0.0 0.0 0.00 0.00 0.00 73 1040.9
20260901222041 27 0.0 0.0 0.00 0.00 0.00 71 1041.0
20260901221518 28 0.0 0.0 0.00 0.00 0.00 69 1040.5
20260901221035 28 0.0 0.0 0.00 0.00 0.00 69 1040.6
20260901220532 28 0.0 0.0 0.00 0.00 0.00 70 1041.3
20260901220028 28 0.0 0.0 0.00 0.00 0.00 69 1041.6
20260901215526 28 0.0 0.0 0.00 0.00 0.00 69 1041.5
20260901215022 29 0.0 0.0 0.00 0.00 0.00 69 1041.2
20260901214520 29 0.0 0.0 0.00 0.00 0.00 66 1040.9
20260901214017 30 0.0 0.0 0.00 0.00 0.00 65 1040.7
20260901213533 30 0.0 0.0 0.00 0.00 0.00 63 1040.7
20260901213030 30 0.0 0.0 0.00 0.00 0.00 63 1041.0
20260901212526 31 0.0 0.0 0.00 0.00 0.00 63 1040.9
20260901212024 31 0.0 0.0 0.00 0.00 0.00 60 1041.0
20260901211521 31 0.0 0.0 0.00 0.00 0.00 58 1041.2
20260901211019 31 0.0 0.0 0.00 0.00 0.00 59 1041.2
20260901210516 31 0.0 0.0 0.00 0.00 0.00 59 1041.3
20260901210033 31 0.0 0.0 0.00 0.00 0.00 60 1041.3
20260901205550 31 0.0 0.0 0.00 0.00 0.00 60 1041.6
20260901205026 31 0.0 0.0 0.00 0.00 0.00 61 1041.5
20260901204523 31 0.0 0.0 0.00 0.00 0.00 64 1041.7
20260901204021 30 0.0 0.0 0.00 0.00 0.00 65 1041.7
20260901203518 30 0.0 0.0 0.00 0.00 0.00 67 1041.5
20260901203035 30 0.0 0.0 0.00 0.00 0.00 68 1041.4
20260901202531 29 0.0 0.0 0.00 0.00 0.00 70 1041.4
20260901202029 29 0.0 0.0 0.00 0.00 0.00 69 1041.6
20260901201525 29 0.0 0.0 0.00 0.00 0.00 68 1041.5
20260901201103 29 0.0 0.0 0.00 0.00 0.00 67 1041.5
20260901200520 29 0.0 0.0 0.00 0.00 0.00 67 1041.6
20260901200017 29 0.0 0.0 0.00 0.00 0.00 67 1041.9
20260901195534 30 0.0 0.0 0.00 0.00 0.00 67 1041.9
20260901195049 30 0.0 0.0 0.00 0.00 0.00 67 1042.1
20260901194526 30 0.0 0.0 0.00 0.00 0.00 67 1042.1
20260901194024 30 0.0 0.0 0.00 0.00 0.00 67 1042.2
20260901193520 31 13 0.0 1.6 0.00 0.00 0.00 67 1042.2
20260901193017 31 0.0 0.0 0.00 0.00 0.00 66 1042.3
20260901192535 31 0.0 0.0 0.00 0.00 0.00 65 1042.3
20260901192030 31 0.0 0.0 0.00 0.00 0.00 65 1042.2
20260901191528 31 0.0 0.0 0.00 0.00 0.00 64 1042.3
20260901191045 31 0.0 0.0 0.00 0.00 0.00 65 1042.2
20260901190543 31 0.0 0.0 0.00 0.00 0.00 65 1042.2
20260901190020 31 0.0 0.0 0.00 0.00 0.00 65 1042.3
20260901185517 31 0.0 0.0 0.00 0.00 0.00 65 1042.3
20260901185034 31 0.0 0.0 0.00 0.00 0.00 65 1042.3
20260901184530 31 0.0 0.0 0.00 0.00 0.00 67 1042.3
20260901184027 30 0.0 0.0 0.00 0.00 0.00 65 1042.4
20260901183524 31 232 0.0 1.6 0.00 0.00 0.00 65 1042.3
20260901183021 31 0.0 0.0 0.00 0.00 0.00 64 1042.2
20260901182517 31 0.0 0.0 0.00 0.00 0.00 64 1042.2
20260901182035 31 0.0 0.0 0.00 0.00 0.00 63 1042.4
20260901181531 31 0.0 0.0 0.00 0.00 0.00 64 1042.2
20260901181028 31 0.0 0.0 0.00 0.00 0.00 64 1042.3
20260901180526 31 199 0.0 3.2 0.00 0.00 0.00 66 1042.2
20260901180022 31 129 0.0 3.2 0.00 0.00 0.00 67 1042.3
20260901175520 31 114 0.0 3.2 0.00 0.00 0.00 66 1042.3
20260901175018 31 0.0 0.0 0.00 0.00 0.00 67 1042.4
20260901174535 31 274 0.0 1.6 0.00 0.00 0.00 67 1042.4
20260901174030 31 187 0.0 1.6 0.00 0.00 0.00 67 1042.5
20260901173547 30 265 0.0 3.2 0.00 0.00 0.00 67 1042.5
20260901173024 30 0.0 0.0 0.00 0.00 0.00 69 1042.4
20260901172522 30 135 0.0 1.6 0.00 0.00 0.00 69 1042.5
20260901172019 30 135 0.0 1.6 0.00 0.00 0.00 70 1042.6
20260901171517 30 135 0.0 3.2 0.00 0.00 0.00 73 1042.6
20260901171034 30 135 0.0 1.6 0.00 0.00 0.00 74 1042.7
20260901170529 30 135 0.0 1.6 0.00 0.00 0.00 77 1042.8
20260901170026 29 145 0.0 3.2 0.00 0.00 0.00 78 1042.8
20260901165543 29 170 0.0 1.6 0.00 0.00 0.00 79 1042.7
20260901165021 29 170 0.0 1.6 0.00 0.00 0.00 79 1042.7
20260901164538 28 0.0 0.0 0.00 0.00 0.00 79 1042.7
20260901164035 28 170 0.0 3.2 0.00 0.00 0.00 80 1042.8
20260901163530 28 177 0.0 3.2 0.00 0.00 0.00 81 1042.8
20260901163027 28 130 0.0 1.6 0.00 0.00 0.00 83 1042.9
20260901162524 28 129 0.0 1.6 0.00 0.00 0.00 83 1042.8
20260901162021 27 141 0.0 1.6 0.00 0.00 0.00 84 1042.7
20260901161519 27 0.0 0.0 0.00 0.00 0.00 84 1042.8
20260901161017 27 236 0.0 1.6 0.00 0.00 0.00 85 1042.8
20260901160532 27 261 0.0 3.2 0.00 0.00 0.00 86 1042.8
20260901160028 27 256 0.0 1.6 0.00 0.00 0.00 88 1042.9
20260901155545 26 165 0.0 1.6 0.00 0.00 0.00 90 1042.8
20260901155022 26 149 0.0 3.2 0.00 0.00 0.00 91 1042.7
20260901154519 26 153 0.0 3.2 0.00 0.00 0.00 92 1042.9
20260901154016 26 0.0 0.0 0.00 0.00 0.00 93 1043.0
20260901153534 26 0.0 0.0 0.00 0.00 0.00 93 1042.9
20260901153029 25 0.0 0.0 0.00 0.00 0.00 93 1043.1
20260901152526 25 0.0 0.0 0.00 0.00 0.00 93 1043.0
20260901152023 25 0.0 0.0 0.00 0.00 0.00 93 1042.9
20260901151521 25 0.0 0.0 0.00 0.00 0.00 93 1042.9
20260901151018 24 0.0 0.0 0.00 0.00 0.00 93 1042.9
20260901150515 24 0.0 0.0 0.00 0.00 0.00 93 1042.9
20260901150031 23 0.0 0.0 0.00 0.00 0.00 93 1042.8
20260901145548 23 0.0 0.0 0.00 0.00 0.00 93 1042.8
20260901145025 23 0.0 0.0 0.00 0.00 0.00 93 1042.8
20260901144522 23 0.0 0.0 0.00 0.00 0.00 93 1042.9
20260901144019 22 0.0 0.0 0.00 0.00 0.00 93 1043.0
20260901143516 22 0.0 0.0 0.00 0.00 0.00 93 1043.0
20260901143053 22 0.0 0.0 0.00 0.00 0.00 93 1043.0
20260901142529 22 0.0 0.0 0.00 0.00 0.00 93 1042.9
20260901142026 22 0.0 0.0 0.00 0.00 0.00 93 1042.9
20260901141524 22 0.0 0.0 0.00 0.00 0.00 93 1043.0
20260901141020 22 0.0 0.0 0.00 0.00 0.00 93 1043.0
20260901140518 21 0.0 0.0 0.00 0.00 0.00 93 1043.0
20260901140035 21 0.0 0.0 0.00 0.00 0.00 93 1043.0
20260901135531 21 0.0 0.0 0.00 0.00 0.00 93 1043.1
20260901135027 21 0.0 0.0 0.00 0.00 0.00 93 1043.1
20260901134605 21 0.0 0.0 0.00 0.00 0.00 93 1043.0
20260901134021 21 0.0 0.0 0.00 0.00 0.00 93 1043.1
20260901133559 21 0.0 0.0 0.00 0.00 0.00 93 1043.1
20260901133035 21 0.0 0.0 0.00 0.00 0.00 93 1043.2
20260901132531 21 0.0 0.0 0.00 0.00 0.00 93 1043.2
20260901132027 21 0.0 0.0 0.00 0.00 0.00 93 1043.2
20260901131525 21 0.0 0.0 0.00 0.00 0.00 93 1043.1
20260901131022 21 0.0 0.0 0.00 0.00 0.00 93 1043.2
20260901130539 21 0.0 0.0 0.00 0.00 0.00 93 1043.1
20260901130015 21 0.0 0.0 0.00 0.00 0.00 93 1043.0
20260901125531 21 0.0 0.0 0.00 0.00 0.00 93 1043.0
20260901125028 21 0.0 0.0 0.00 0.00 0.00 93 1042.9
20260901124525 21 0.0 0.0 0.00 0.00 0.00 93 1043.0
20260901124022 21 0.0 0.0 0.00 0.00 0.00 93 1043.1
20260901123519 21 0.0 0.0 0.00 0.00 0.00 93 1042.8
20260901123016 21 0.0 0.0 0.00 0.00 0.00 93 1043.0
20260901122533 21 0.0 0.0 0.00 0.00 0.00 93 1042.9
20260901122029 21 0.0 0.0 0.00 0.00 0.00 93 1042.9
20260901121527 21 0.0 0.0 0.00 0.00 0.00 93 1042.8
20260901121024 21 0.0 0.0 0.00 0.00 0.00 93 1042.7
20260901120521 21 0.0 0.0 0.00 0.00 0.00 93 1042.6
20260901120019 21 0.0 0.0 0.00 0.00 0.00 93 1042.6
20260901115535 21 0.0 0.0 0.00 0.00 0.00 93 1042.5
20260901115032 21 0.0 0.0 0.00 0.00 0.00 93 1042.5
20260901114529 21 0.0 0.0 0.00 0.00 0.00 93 1042.4
20260901114026 21 0.0 0.0 0.00 0.00 0.00 93 1042.4
20260901113523 21 0.0 0.0 0.00 0.00 0.00 93 1042.3
20260901113100 21 0.0 0.0 0.00 0.00 0.00 93 1042.3
20260901112537 21 0.0 0.0 0.00 0.00 0.00 93 1042.2
20260901112035 21 0.0 0.0 0.00 0.00 0.00 93 1042.3
20260901111531 21 0.0 0.0 0.00 0.00 0.00 93 1042.3
20260901111048 21 0.0 0.0 0.00 0.00 0.00 93 1042.3
20260901110525 21 0.0 0.0 0.00 0.00 0.00 93 1042.3
20260901110022 21 0.0 0.0 0.00 0.00 0.00 93 1042.2
20260901105539 21 0.0 0.0 0.00 0.00 0.00 93 1042.2
20260901105016 21 0.0 0.0 0.00 0.00 0.00 93 1042.1
20260901104533 21 0.0 0.0 0.00 0.00 0.00 93 1042.2
20260901104029 21 0.0 0.0 0.00 0.00 0.00 93 1042.1
20260901103546 21 0.0 0.0 0.00 0.00 0.00 93 1042.2
20260901103024 21 0.0 0.0 0.00 0.00 0.00 93 1042.2
20260901102521 21 0.0 0.0 0.00 0.00 0.00 93 1042.2
20260901102038 21 0.0 0.0 0.00 0.00 0.00 93 1042.0
20260901101516 21 0.0 0.0 0.00 0.00 0.00 93 1041.8
20260901101033 21 0.0 0.0 0.00 0.00 0.00 93 1041.9
20260901100529 21 0.0 0.0 0.00 0.00 0.00 93 1041.8
20260901100026 21 0.0 0.0 0.00 0.00 0.00 93 1041.9
20260901095523 21 0.0 0.0 0.00 0.00 0.00 93 1041.9
20260901095020 21 0.0 0.0 0.00 0.00 0.00 92 1041.8
20260901094517 21 0.0 0.0 0.00 0.00 0.00 92 1041.9
20260901094034 21 0.0 0.0 0.00 0.00 0.00 93 1041.9
20260901093550 21 0.0 0.0 0.00 0.00 0.00 92 1041.8
20260901093027 21 0.0 0.0 0.00 0.00 0.00 92 1041.9
20260901092524 21 0.0 0.0 0.00 0.00 0.00 92 1041.9
20260901092022 21 0.0 0.0 0.00 0.00 0.00 92 1041.8
20260901091539 22 0.0 0.0 0.00 0.00 0.00 92 1041.7
20260901091016 22 0.0 0.0 0.00 0.00 0.00 92 1041.7
20260901090553 21 0.0 0.0 0.00 0.00 0.00 92 1041.9
20260901090049 21 0.0 0.0 0.00 0.00 0.00 92 1041.9
20260901085526 21 0.0 0.0 0.00 0.00 0.00 92 1041.7
20260901085023 21 0.0 0.0 0.00 0.00 0.00 92 1041.7
20260901084520 22 0.0 0.0 0.00 0.00 0.00 92 1041.5
20260901084058 22 0.0 0.0 0.00 0.00 0.00 92 1041.5
20260901083535 21 0.0 0.0 0.00 0.00 0.00 92 1041.5
20260901083030 21 0.0 0.0 0.00 0.00 0.00 92 1041.5
20260901082527 21 0.0 0.0 0.00 0.00 0.00 92 1041.6
20260901082024 21 0.0 0.0 0.00 0.00 0.00 92 1041.7
20260901081521 21 0.0 0.0 0.00 0.00 0.00 92 1041.6
20260901081018 21 0.0 0.0 0.00 0.00 0.00 92 1041.6
20260901080516 21 0.0 0.0 0.00 0.00 0.00 92 1041.6
20260901080032 22 0.0 0.0 0.00 0.00 0.00 92 1041.7
20260901075528 22 0.0 0.0 0.00 0.00 0.00 92 1041.8
20260901075025 22 0.0 0.0 0.00 0.00 0.00 92 1041.7
20260901074523 22 0.0 0.0 0.00 0.00 0.00 92 1041.7
20260901074020 22 0.0 0.0 0.00 0.00 0.00 92 1041.7
20260901073557 22 0.0 0.0 0.00 0.00 0.00 92 1041.7
20260901073034 22 0.0 0.0 0.00 0.00 0.00 92 1041.7
20260901072530 22 0.0 0.0 0.00 0.00 0.00 92 1041.9
20260901072027 22 0.0 0.0 0.00 0.00 0.00 92 1041.8
20260901071524 22 0.0 0.0 0.00 0.00 0.00 92 1041.8
20260901071021 22 0.0 0.0 0.00 0.00 0.00 92 1041.9
20260901070518 22 0.0 0.0 0.00 0.00 0.00 92 1041.8
20260901070016 22 0.0 0.0 0.00 0.00 0.00 92 1041.8
20260901065533 22 0.0 0.0 0.00 0.00 0.00 92 1041.8
20260901065049 22 0.0 0.0 0.00 0.00 0.00 92 1041.9
20260901064526 22 0.0 0.0 0.00 0.00 0.00 92 1041.8
20260901064023 22 0.0 0.0 0.00 0.00 0.00 91 1041.7
20260901063540 22 0.0 0.0 0.00 0.00 0.00 91 1041.7
20260901063037 22 0.0 0.0 0.00 0.00 0.00 91 1041.8
20260901062555 22 0.0 0.0 0.00 0.00 0.00 91 1041.8
20260901062032 22 0.0 0.0 0.00 0.00 0.00 91 1041.7
20260901061528 22 0.0 0.0 0.00 0.00 0.00 91 1041.7
20260901061026 22 0.0 0.0 0.00 0.00 0.00 91 1041.7
20260901060523 22 0.0 0.0 0.00 0.00 0.00 91 1041.6
20260901060020 22 0.0 0.0 0.00 0.00 0.00 91 1041.6
20260901055517 22 0.0 0.0 0.00 0.00 0.00 91 1041.6
20260901055034 22 0.0 0.0 0.00 0.00 0.00 91 1041.5
20260901054530 22 0.0 0.0 0.00 0.00 0.00 91 1041.4
20260901054027 22 0.0 0.0 0.00 0.00 0.00 91 1041.4
20260901053524 22 0.0 0.0 0.00 0.00 0.00 91 1041.4
20260901053021 22 0.0 0.0 0.00 0.00 0.00 91 1041.3
20260901052519 22 0.0 0.0 0.00 0.00 0.00 91 1041.2
20260901052036 22 0.0 0.0 0.00 0.00 0.00 91 1041.2
20260901051534 22 0.0 0.0 0.00 0.00 0.00 91 1041.3
20260901051029 22 0.0 0.0 0.00 0.00 0.00 91 1041.3
20260901050527 22 0.0 0.0 0.00 0.00 0.00 91 1041.2
20260901050024 22 0.0 0.0 0.00 0.00 0.00 90 1041.3
20260901045541 22 0.0 0.0 0.00 0.00 0.00 90 1041.3
20260901045018 22 0.0 0.0 0.00 0.00 0.00 90 1041.4
20260901044535 22 0.0 0.0 0.00 0.00 0.00 90 1041.3
20260901044032 22 0.0 0.0 0.00 0.00 0.00 90 1041.3
20260901043528 22 0.0 0.0 0.00 0.00 0.00 90 1041.3
20260901043024 22 0.0 0.0 0.00 0.00 0.00 90 1041.3
20260901042521 22 0.0 0.0 0.00 0.00 0.00 90 1041.1
20260901042018 23 0.0 0.0 0.00 0.00 0.00 90 1041.1
20260901041515 23 0.0 0.0 0.00 0.00 0.00 90 1041.1
20260901041032 23 0.0 0.0 0.00 0.00 0.00 90 1041.1
20260901040528 23 0.0 0.0 0.00 0.00 0.00 90 1041.0
20260901040025 23 0.0 0.0 0.00 0.00 0.00 90 1041.0
20260901035522 23 0.0 0.0 0.00 0.00 0.00 89 1041.0
20260901035019 23 0.0 0.0 0.00 0.00 0.00 89 1040.9
20260901034516 23 0.0 0.0 0.00 0.00 0.00 89 1040.9
20260901034033 23 0.0 0.0 0.00 0.00 0.00 89 1040.9
20260901033529 23 0.0 0.0 0.00 0.00 0.00 89 1040.9
20260901033027 23 0.0 0.0 0.00 0.00 0.00 89 1041.0
20260901032523 23 0.0 0.0 0.00 0.00 0.00 89 1040.9
20260901032021 23 0.0 0.0 0.00 0.00 0.00 89 1040.8
20260901031518 23 0.0 0.0 0.00 0.00 0.00 88 1040.8
20260901031035 23 0.0 0.0 0.00 0.00 0.00 88 1040.9
20260901030533 23 0.0 0.0 0.00 0.00 0.00 88 1041.0
20260901030028 23 0.0 0.0 0.00 0.00 0.00 89 1041.1
20260901025525 24 0.0 0.0 0.00 0.00 0.00 88 1041.0
20260901025022 24 0.0 0.0 0.00 0.00 0.00 88 1041.0
20260901024520 24 0.0 0.0 0.00 0.00 0.00 89 1040.9
20260901024017 24 0.0 0.0 0.00 0.00 0.00 88 1040.9
20260901023554 24 0.0 0.0 0.00 0.00 0.00 88 1040.9
20260901023031 24 0.0 0.0 0.00 0.00 0.00 88 1040.8
20260901022527 24 0.0 0.0 0.00 0.00 0.00 87 1040.9
20260901022025 24 0.0 0.0 0.00 0.00 0.00 87 1040.9
20260901021522 24 0.0 0.0 0.00 0.00 0.00 87 1040.8
20260901021018 25 0.0 0.0 0.00 0.00 0.00 87 1040.8
20260901020536 25 0.0 0.0 0.00 0.00 0.00 87 1040.8
20260901020032 25 0.0 0.0 0.00 0.00 0.00 86 1040.9
20260901015528 25 0.0 0.0 0.00 0.00 0.00 86 1040.9
20260901015044 25 0.0 0.0 0.00 0.00 0.00 86 1040.9
20260901014521 25 0.0 0.0 0.00 0.00 0.00 86 1040.8
20260901014019 25 0.0 0.0 0.00 0.00 0.00 85 1040.8
20260901013516 25 0.0 0.0 0.00 0.00 0.00 85 1040.5
20260901013033 25 0.0 0.0 0.00 0.00 0.00 84 1040.6
20260901012629 26 0.0 0.0 0.00 0.00 0.00 84 1040.6
20260901012026 26 0.0 0.0 0.00 0.00 0.00 84 1040.3
20260901011523 26 0.0 0.0 0.00 0.00 0.00 83 1040.2
20260901011020 26 0.0 0.0 0.00 0.00 0.00 83 1040.2
20260901010517 26 0.0 0.0 0.00 0.00 0.00 83 1040.2
20260901010034 26 0.0 0.0 0.00 0.00 0.00 82 1040.2
20260901005530 27 0.0 0.0 0.00 0.00 0.00 81 1040.2
20260901005027 27 0.0 0.0 0.00 0.00 0.00 80 1040.2
20260901004525 27 0.0 0.0 0.00 0.00 0.00 80 1040.1
20260901004022 27 0.0 0.0 0.00 0.00 0.00 79 1040.0
20260901003519 28 0.0 0.0 0.00 0.00 0.00 79 1039.8
20260901003035 28 0.0 0.0 0.00 0.00 0.00 79 1039.8
20260901002532 28 0.0 0.0 0.00 0.00 0.00 78 1039.9
20260901002109 28 0.0 0.0 0.00 0.00 0.00 78 1039.9
20260901001525 28 0.0 0.0 0.00 0.00 0.00 78 1039.8
20260901001022 28 0.0 0.0 0.00 0.00 0.00 77 1039.9